Satellite-Ground Cal/Val Site Overpasses Predictions

Prediction of Satellite NPP Overpassing Cal/Val Site: Antarctic Dome C

Ground Cal/Val Site Location: Latitude: -75.10, Longitude: 123.35; Satellite-Ground Site NADIR distance within 100 km.

Table of predicted overpasses for the next 14.0 days since TLE Epoch: 7/16/2016
Interval Starting Time Ending Time Minimum Distance Time Minimum Distance (km)
1 07/16/2016 14:49:27 07/16/2016 14:49:55 07/16/2016 14:49:41 16.06
2 07/18/2016 07:32:16 07/18/2016 07:32:46 07/18/2016 07:32:31 1.00
3 07/21/2016 14:55:41 07/21/2016 14:56:10 07/21/2016 14:55:56 20.25
4 07/22/2016 14:37:00 07/22/2016 14:37:14 07/22/2016 14:37:07 86.74
5 07/23/2016 07:38:31 07/23/2016 07:38:58 07/23/2016 07:38:45 36.39
6 07/24/2016 07:19:45 07/24/2016 07:20:05 07/24/2016 07:19:55 73.80
7 07/26/2016 15:01:59 07/26/2016 15:02:23 07/26/2016 15:02:11 57.24
8 07/27/2016 14:43:08 07/27/2016 14:43:33 07/27/2016 14:43:20 51.94
9 07/28/2016 07:44:49 07/28/2016 07:45:09 07/28/2016 07:44:59 71.38


NCC Satellite Cal/Val Overpasses Prediction Service
